Weather History for Ramona, CA

Change the Weather History Date:

Sunday, November 4, 2012

  Actual Average Record
Temperature  
Mean Temperature 65 °F 59 °F  
Max Temperature 89 °F 75 °F 94 °F (1980)
Min Temperature 40 °F 43 °F 34 °F (1990)
Degree Days  
Heating Degree Days 0 7  
Month to date heating degree days 20 25  
Since 1 July heating degree days 100 144  
Cooling Degree Days 0 1  
Month to date cooling degree days 0 4  
Year to date cooling degree days 1032 848  
Growing Degree Days 14 (Base 50)    
Moisture  
Dew Point 31 °F    
Average Humidity 52    
Maximum Humidity 96    
Minimum Humidity 7    
Precipitation  
Precipitation 0.00 in 0.04 in 1.05 in (2011)
Month to date precipitation 0.00 0.23  
Year to date precipitation 7.82 12.85  
Since 1 July precipitation 0.90 1.52  
Snow  
Snow 0.00 in - - ()
Month to date snowfall 0.0  
Year to date snowfall 0.0  
Since 1 July snowfall 0.0  
Snow Depth 0.00 in    
Sea Level Pressure  
Sea Level Pressure 30.05 in    
Wind  
Wind Speed 5 mph (East)    
Max Wind Speed 17 mph    
Max Gust Speed 23 mph    
Visibility 10 miles    
Events      
T = Trace of Precipitation, MM = Missing Value Source: NWS Daily Summary

Daily Weather History Graph

Daily Weather History Graph

Search for Another Location

Airport:

Trip Planner

Search our weather history database for the weather conditions in past years. The results will help you decide how hot, cold, wet, or windy it might be!

Date:

Astronomy

Nov. 04, 2012 Rise Set
Actual Time 6:08 AM PST 4:53 PM PST
Civil Twilight 5:43 AM PST 5:18 PM PST
Nautical Twilight 5:13 AM PST 5:48 PM PST
Astronomical Twilight 4:44 AM PST 6:17 PM PST
Moon 9:37 PM PST (11/4) 10:52 AM PST (11/4)
Length of Visible Light 11h 35m
Length of Day
10h 44m
Waning Gibbous, 71% of the Moon is Illuminated
Nov 4
Waning Gibbous
Nov 6
Last Quarter
Nov 13
New
Nov 20
First Quarter
Nov 28
Full

Hourly Weather History & Observations

Time (PST) Temp. Windchill Dew Point Humidity Pressure Visibility Wind Dir Wind Speed Gust Speed Precip Events Conditions
12:53 AM 48.0 °F - 43.0 °F 83% 30.04 in 9.0 mi Calm Calm - N/A   Clear
1:53 AM 45.0 °F - 42.1 °F 90% 30.05 in 7.0 mi Calm Calm - N/A   Clear
1:53 AM 43.0 °F - 41.0 °F 93% 30.05 in 9.0 mi Calm Calm - N/A   Clear
2:53 AM 42.1 °F - 39.0 °F 89% 30.04 in 10.0 mi Calm Calm - N/A   Clear
3:53 AM 39.9 °F - 37.0 °F 89% 30.04 in 10.0 mi Calm Calm - N/A   Clear
4:53 AM 44.1 °F - 36.0 °F 73% 30.05 in 10.0 mi Calm Calm - N/A   Clear
5:53 AM 42.1 °F 40.2 °F 36.0 °F 79% 30.06 in 10.0 mi Variable 3.5 mph - N/A   Clear
6:53 AM 46.9 °F - 39.0 °F 74% 30.08 in 10.0 mi Calm Calm - N/A   Clear
7:53 AM 63.0 °F - 42.1 °F 46% 30.09 in 10.0 mi Calm Calm - N/A   Clear
8:53 AM 78.1 °F - 30.9 °F 18% 30.08 in 10.0 mi Calm Calm - N/A   Clear
9:53 AM 86.0 °F - 24.1 °F 10% 30.06 in 10.0 mi East 13.8 mph 17.3 mph N/A   Clear
10:53 AM 87.1 °F - 19.9 °F 8% 30.05 in 10.0 mi East 11.5 mph 19.6 mph N/A   Clear
11:53 AM 88.0 °F - 19.0 °F 8% 30.03 in 10.0 mi ESE 13.8 mph - N/A   Clear
12:53 PM 88.0 °F - 19.0 °F 8% 30.01 in 10.0 mi ESE 13.8 mph 19.6 mph N/A   Clear
1:53 PM 88.0 °F - 18.0 °F 8% 30.01 in 10.0 mi East 11.5 mph 19.6 mph N/A   Clear
2:53 PM 88.0 °F - 15.1 °F 7% 30.00 in 10.0 mi East 12.7 mph 18.4 mph N/A   Clear
3:53 PM 86.0 °F - 16.0 °F 7% 30.01 in 10.0 mi ENE 13.8 mph 20.7 mph N/A   Clear
4:53 PM 77.0 °F - 28.0 °F 17% 30.03 in 10.0 mi NW 3.5 mph - N/A   Clear
5:53 PM 66.9 °F - 33.1 °F 28% 30.06 in 10.0 mi Calm Calm - N/A   Clear
6:53 PM 59.0 °F - 30.0 °F 33% 30.07 in 10.0 mi Calm Calm - N/A   Clear
7:53 PM 57.0 °F - 30.9 °F 37% 30.06 in 10.0 mi Calm Calm - N/A   Clear
8:53 PM 53.1 °F - 30.0 °F 41% 30.06 in 10.0 mi Calm Calm - N/A   Clear
9:53 PM 50.0 °F - 30.9 °F 48% 30.06 in 10.0 mi Calm Calm - N/A   Clear
10:53 PM 46.9 °F - 32.0 °F 56% 30.07 in 10.0 mi Calm Calm - N/A   Clear